Het weer levert geen direct gevaar op.    Er zijn geen waarschuwingen afgegeven.


Onweer radar Meer informatie blitzortung!


Regen radar Meer informatie rain snow radar


Bezoek onze andere website:

Template documentation
and downloads

And another site



Select another period ( hide this area )

Eenheden Periode Custom range Directly to
Metrisch Engels Beide
Dagelijkse Wekelijkse Maandelijkse Jaarlijkse
use both date-selectors for a custom range
previous Dag
With this date

WeatherUnderground graphs for this period ( click here )


Dagelijkse Samenvatting Maandag 09 december 2019
Tijd Temp. ( °C ) Dew pt. ( °C ) Wind ( km/h ) van Windvlaag ( km/h ) Luchtdruk ( hPa ) Humid.( % ) Rainrate ( cm )
Hoog9,3 7,3 33,3 ZW ( 838/2542 ) 51,5 1014,0 95 2,00
Gemiddeld7,5 5,0 10,9 ZW #46/233 22,9 997,4 85 0,80
Laag5,7 2,0 -   3,2 990,8 67 -
Dagelijkse Tabular details for Maandag 09 december 2019
Tijd Temp. ( °C ) Dew pt. ( °C ) Wind ( km/h ) van Windvlaag ( km/h ) Luchtdruk ( hPa ) Humid.( % ) Rainrate ( cm )
00:00 8,8 4,9 24,1 ZW 46,7 993,5 77 -
00:05 8,8 4,9 20,9 ZW 37,0 993,3 77 -
00:10 8,8 5,0 24,1 ZW 35,4 993,3 77 -
00:15 8,8 5,7 24,1 ZW 46,7 993,3 81 -
00:20 8,8 5,0 19,3 ZW 35,4 993,2 77 -
00:25 8,9 5,2 19,3 ZW 33,8 993,3 78 -
00:30 8,9 5,3 22,5 ZW 35,4 993,2 78 -
00:35 8,9 5,1 22,5 ZW 37,0 993,1 77 -
00:40 8,8 5,2 19,3 ZW 33,8 993,0 78 -
00:45 8,8 5,2 24,1 WZW 16,6 992,9 78 -
00:50 8,8 5,3 22,5 ZW 35,4 992,9 79 -
00:55 8,8 5,2 29,0 ZW 51,5 992,8 78 -
01:00 8,8 5,2 20,9 ZW 37,0 992,7 78 -
01:05 8,8 5,0 20,9 ZW 48,3 992,6 77 -
01:10 8,7 4,7 25,7 ZW 41,8 992,7 76 -
01:15 8,7 4,5 24,1 ZW 40,2 992,7 75 -
01:20 8,7 4,3 24,1 ZW 38,6 992,7 74 -
01:25 8,7 4,5 22,5 ZW 38,6 992,6 75 -
01:30 8,7 4,6 19,3 ZW 32,2 992,6 75 -
01:35 8,8 4,8 19,3 ZW 35,4 992,6 76 -
01:40 8,8 4,9 19,3 ZW 32,2 992,5 77 -
01:45 8,8 4,9 16,1 ZW 41,8 992,7 77 -
01:50 8,7 4,9 24,1 ZW 38,6 992,4 77 -
01:55 8,7 4,8 16,1 ZW 32,2 992,5 77 -
02:00 8,6 4,8 20,9 ZW 38,6 992,5 77 -
02:05 8,6 4,8 24,1 ZW 37,0 992,4 77 -
02:10 8,6 4,8 33,3 ZW 21,1 992,3 77 -
02:15 8,6 4,8 16,1 ZW 38,6 992,3 77 -
02:20 8,6 4,8 14,5 ZW 33,8 992,3 77 -
02:25 8,6 4,8 19,3 ZW 33,8 992,2 77 -
02:30 8,6 4,8 22,5 ZW 37,0 992,3 77 -
02:35 8,6 4,8 19,3 ZW 27,4 992,1 77 -
02:40 8,6 5,0 12,9 ZW 29,0 992,0 78 -
02:45 8,6 4,9 16,1 ZW 29,0 991,9 78 -
02:50 8,6 5,0 14,5 ZW 33,8 991,8 78 -
02:55 8,7 4,8 24,1 ZW 37,0 991,9 77 -
03:00 8,7 5,1 11,3 ZZW 32,2 991,8 78 -
03:05 8,6 5,2 9,7 ZW 16,1 991,8 79 -
03:10 8,4 5,2 8,0 ZW 24,1 991,8 80 -
03:15 8,3 5,0 9,7 ZW 24,1 991,9 80 -
03:20 8,1 5,0 11,3 ZW 25,7 991,7 81 -
03:25 7,9 5,0 4,8 ZZW 19,3 991,7 82 -
03:30 7,7 4,8 8,0 ZZW 20,9 991,7 82 -
03:35 7,6 4,9 8,0 ZZW 19,3 991,6 83 -
03:40 7,5 4,9 9,7 ZZW 14,5 991,4 84 -
03:45 7,4 5,1 4,8 ZZW 17,7 991,2 85 -
03:50 7,3 5,1 3,2 ZW 19,3 991,1 86 -
03:55 7,2 5,1 8,0 ZW 20,9 991,2 86 -
04:00 7,2 5,2 11,3 ZZW 22,5 991,4 87 -
04:05 7,2 5,3 8,0 ZZW 32,2 991,4 88 -
04:10 7,1 5,3 9,7 ZZW 25,7 991,2 88 -
04:15 7,0 5,3 4,8 ZZW 22,5 991,1 89 0,20
04:20 6,9 5,3 9,7 ZZW 20,9 991,3 89 -
04:25 6,8 5,2 11,3 ZZW 24,1 991,4 89 0,20
04:30 6,8 5,3 8,0 ZZW 19,3 991,1 90 0,80
04:35 6,7 5,2 11,1 ZZO 6,4 991,1 90 2,00
04:40 6,6 5,3 4,8 Zuiden 16,1 991,3 91 0,20
04:45 6,6 5,2 8,0 Zuiden 22,5 991,1 91 -
04:50 6,6 5,2 16,7 ZW 11,1 991,1 91 2,00
04:55 6,5 5,2 19,3 ZZW 35,4 991,4 91 0,20
05:00 6,5 5,3 11,3 ZW 20,9 991,4 92 0,20
05:05 6,4 5,2 11,3 ZZW 32,2 991,4 92 0,80
05:10 6,3 5,1 11,3 ZZW 22,5 991,4 92 0,80
05:15 6,3 5,1 4,8 ZZW 16,1 991,3 92 -
05:20 6,3 5,1 8,0 ZZW 20,9 991,2 92 0,80
05:25 6,3 5,1 12,9 ZZW 22,5 991,2 92 -
05:30 6,2 5,2 11,3 ZW 19,3 991,2 93 -
05:35 6,2 4,9 9,7 ZW 19,3 991,2 92 -
05:40 6,1 5,1 9,7 ZZW 19,3 991,2 93 -
05:45 6,1 5,0 9,7 ZZW 19,3 991,2 93 0,40
05:50 5,9 4,9 4,8 ZZW 16,1 991,1 93 0,20
05:55 5,8 4,8 4,8 ZZW 19,3 991,1 93 -
06:00 5,8 4,7 4,8 ZZW 11,3 991,1 93 -
06:05 5,8 4,7 3,2 Zuiden 11,3 991,0 93 -
06:10 5,7 4,7 9,7 Zuiden 14,5 991,0 93 -
06:15 5,7 4,7 3,2 Zuiden 14,5 990,9 93 -
06:20 5,7 4,7 4,8 Zuiden 14,5 990,9 93 -
06:25 5,7 4,7 8,0 ZZW 14,5 990,9 93 -
06:30 5,8 4,7 1,6 ZW 9,7 990,8 93 -
06:35 5,8 4,7 4,8 ZZW 12,9 990,8 93 0,20
06:40 5,7 4,7 3,2 ZZW 14,5 990,8 93 -
06:45 5,7 4,7 4,8 ZZW 19,3 990,8 93 -
06:50 5,7 4,7 1,6 ZZW 9,7 990,8 93 -
06:55 5,7 4,6 3,2 Zuiden 9,7 990,8 93 -
07:00 5,7 4,7 4,8 ZZW 9,7 991,0 93 -
07:05 5,8 4,9 4,8 ZZW 14,5 991,2 94 -
07:10 5,8 4,9 4,8 ZZW 9,7 991,2 94 -
07:15 5,8 4,9 1,6 ZZW 9,7 991,3 94 -
07:20 5,8 4,9 1,6 ZZW 6,4 991,5 94 -
07:25 5,8 4,9 3,2 ZZW 8,0 991,3 94 0,20
07:30 5,8 4,9 1,6 ZZW 4,8 991,5 94 -
07:35 5,9 5,0 1,6 ZZW 6,4 991,5 94 0,20
07:40 5,9 5,0 1,6 ZZW 4,8 991,5 94 0,40
07:45 5,9 5,0   Kalm 3,2 991,5 94 -
07:50 5,9 5,1 1,6 Zuiden 9,7 991,5 94 -
07:55 5,9 5,1 3,2 ZZO 12,9 991,7 94 -
08:00 6,0 5,1 3,2 Zuiden 14,5 991,7 94 -
08:05 6,0 5,1 4,8 ZZW 8,0 991,9 94 -
08:10 6,1 5,2 1,6 WZW 6,4 992,0 94 -
08:15 6,1 5,2 1,6 WNW 6,4 992,2 94 -
08:20 6,1 5,2 1,6 WNW 3,2 992,3 94 -
08:25 6,2 5,3 3,2 WNW 4,8 992,4 94 -
08:30 6,2 5,3   Kalm 6,4 992,5 94 -
08:35 6,3 5,6 4,8 WNW 12,9 992,5 95 -
08:40 6,6 5,8 9,7 WNW 20,9 992,6 95 -
08:45 6,7 5,9 8,0 Westen 14,5 992,7 95 -
08:50 6,7 5,8 4,8 Westen 11,3 992,8 94 -
08:55 6,8 5,9 4,8 WNW 14,5 992,8 94 -
09:00 6,8 5,9 4,8 WNW 19,3 992,7 94 -
09:05 6,8 5,9 4,8 Westen 19,3 992,9 94 -
09:10 6,9 6,0 4,8 Westen 14,5 993,1 94 -
09:15 6,9 6,1 11,3 Westen 16,1 993,1 94 -
09:20 7,1 6,0 11,3 Westen 20,9 993,5 93 -
09:25 7,2 6,2 9,7 WZW 27,4 993,5 93 0,20
09:30 7,3 6,2 11,3 WZW 22,5 993,6 93 0,20
09:35 7,2 6,2 9,7 Westen 16,1 993,6 93 0,20
09:40 7,2 5,9 9,7 Westen 16,1 993,7 92 -
09:45 7,2 6,0 18,5 Westen 9,5 993,7 92 0,40
09:50 7,3 6,1 8,0 WZW 19,3 993,8 92 -
09:55 7,4 6,2 9,7 WZW 19,3 993,9 92 -
10:00 7,5 6,3 12,9 Westen 20,9 994,1 92 -
10:05 7,6 6,2 9,7 Westen 12,9 994,2 91 -
10:10 7,7 6,5 16,1 Westen 33,8 994,6 92 -
10:15 7,8 6,4 9,7 Westen 25,7 994,7 91 -
10:20 7,8 6,2 9,7 Westen 27,4 994,7 90 -
10:25 7,7 6,1 8,0 WNW 19,3 994,7 90 -
10:30 7,6 5,9 8,0 Westen 20,9 994,8 89 -
10:35 7,6 5,9 9,7 Westen 20,9 994,9 89 -
10:40 7,7 6,1 9,7 Westen 20,9 995,0 89 -
10:45 7,9 6,2 20,4 Westen 13,2 995,0 89 -
10:50 7,9 6,2 14,5 Westen 29,0 995,1 89 -
10:55 8,1 6,2 12,9 Westen 25,7 995,2 88 -
11:00 8,3 6,4 11,3 Westen 19,3 995,2 88 -
11:05 8,4 6,4 18,5 WZW 12,6 995,4 87 -
11:10 8,6 6,6 14,5 Westen 25,7 995,5 87 -
11:15 8,7 6,7 9,7 WZW 25,7 995,7 87 -
11:20 8,7 6,5 12,9 Westen 27,4 995,6 86 -
11:25 8,8 6,6 22,2 WNW 11,7 995,8 86 -
11:30 8,6 6,0 11,3 Westen 25,7 995,8 84 -
11:35 8,3 5,7 9,7 WZW 19,3 995,7 84 -
11:40 8,2 5,8 11,1 WZW 5,3 995,9 85 -
11:45 8,2 6,0 14,5 WZW 27,4 996,0 86 -
11:50 8,2 6,0 14,5 Westen 25,7 996,1 86 -
11:55 8,2 6,0 9,7 Westen 24,1 996,0 86 -
12:00 8,1 5,8 12,9 Westen 20,9 996,1 86 -
12:05 8,0 5,8 4,8 Westen 19,3 996,2 86 -
12:10 8,0 5,9 4,8 Westen 14,5 996,2 87 -
12:15 8,1 6,0 8,0 Westen 12,9 996,4 87 -
12:20 8,2 6,3 11,1 Westen 6,6 996,5 88 -
12:25 8,3 6,4 4,8 Westen 14,5 996,6 88 -
12:30 8,4 6,7 11,1 Westen 7,1 996,8 89 -
12:35 8,6 6,8 3,2 Westen 16,1 996,9 89 0,20
12:40 8,7 6,9 9,7 Westen 20,9 997,1 89 0,20
12:45 8,8 6,9 3,2 WNW 16,1 997,3 88 -
12:50 9,1 7,2 3,2 NW 14,5 997,5 88 -
12:55 9,2 7,3 4,8 NW 16,1 997,5 88 -
13:00 9,1 7,1 8,0 NW 19,3 997,9 87 -
13:05 9,1 7,1 4,8 NW 14,5 998,1 87 -
13:10 9,2 7,3 3,2 NW 16,1 998,2 88 -
13:15 9,3 7,2 8,0 NW 19,3 998,4 87 -
13:20 9,3 7,2 3,2 WNW 19,3 998,6 87 -
13:25 9,2 7,1 3,2 WNW 16,1 998,9 87 -
13:30 9,1 7,0 4,8 NW 19,3 999,2 87 -
13:35 8,8 6,7 8,0 Noorden 19,3 999,5 86 -
13:40 8,5 6,1 11,3 WNW 32,2 999,7 85 0,20
13:45 8,3 6,1 8,0 NW 22,5 999,9 86 -
13:50 8,1 6,1 16,7 ZO 11,3 1000,3 87 0,20
13:55 8,1 6,2 8,0 Noorden 29,0 1000,5 88 0,20
14:00 8,0 6,1 11,3 Noorden 25,7 1000,6 88 -
14:05 7,8 5,9 12,9 NNW 35,4 1000,9 88 -
14:10 7,8 5,9 11,3 Noorden 37,0 1001,2 88 -
14:15 7,7 5,7 14,5 NNW 49,9 1001,6 87 -
14:20 7,7 5,6 14,5 WNW 27,4 1001,9 86 -
14:25 7,6 5,6 11,3 Noorden 24,1 1002,3 87 -
14:30 7,4 5,4 11,3 Noorden 32,2 1002,5 87 -
14:35 7,3 5,3 9,7 NNO 22,5 1002,6 87 -
14:40 7,2 6,0 4,8 NNO 19,3 1002,8 92 -
14:45 7,2 5,4 8,0 Noorden 29,0 1003,0 88 -
14:50 7,2 5,3 19,3 Noorden 29,0 1003,4 88 0,20
14:55 7,1 5,1 11,3 Noorden 32,2 1003,7 87 0,20
15:00 6,9 4,7 14,5 Noorden 40,2 1003,7 86 -
15:05 6,8 4,6 16,7 Noorden 9,5 1003,9 86 0,40
15:10 6,8 4,6 3,2 NNO 16,1 1004,1 86 -
15:15 6,9 4,9 8,0 NO 19,3 1004,4 87 -
15:20 6,9 4,6 31,5 Oosten 15,0 1004,7 85 0,40
15:25 7,1 4,3 14,5 NNO 25,7 1004,8 82 -
15:30 7,5 4,6 11,3 Noorden 32,2 1005,1 82 -
15:35 7,7 4,8 11,3 NNO 27,4 1005,3 82 -
15:40 7,8 4,6 12,9 NNO 27,4 1005,4 80 -
15:45 7,8 4,2 9,7 NW 33,8 1005,7 78 -
15:50 7,9 4,1 9,7 NNW 27,4 1005,8 77 -
15:55 8,0 4,0 14,5 NNW 27,4 1006,1 76 -
16:00 8,0 3,8 8,0 Noorden 32,2 1006,3 75 -
16:05 8,0 3,8 9,7 Noorden 22,5 1006,4 75 -
16:10 8,0 3,8 9,7 Noorden 19,3 1006,6 75 -
16:15 8,0 4,0 12,9 NNW 32,2 1006,9 76 -
16:20 7,8 4,0 12,9 NNO 37,0 1007,3 77 0,20
16:25 7,2 3,4 9,7 Noorden 32,2 1007,5 77 0,20
16:30 7,0 3,4 8,0 Noorden 25,7 1007,6 78 -
16:35 7,1 3,5 12,9 Noorden 32,2 1007,8 78 -
16:40 7,3 3,5 8,0 NW 20,9 1008,1 77 -
16:45 7,4 3,4 12,9 NW 25,7 1008,4 76 -
16:50 7,6 3,6 8,0 NNW 27,4 1008,4 76 -
16:55 7,7 3,7 4,8 NNW 19,3 1008,5 76 -
17:00 7,7 3,7 4,8 NW 19,3 1008,7 76 -
17:05 7,6 3,3 12,9 NNW 32,2 1009,0 74 -
17:10 7,7 2,6 9,7 Noorden 32,2 1009,2 70 -
17:15 7,8 2,7 11,3 NNW 19,3 1009,5 70 -
17:20 7,7 2,2 12,9 NW 27,4 1009,9 68 -
17:25 7,8 2,1 8,0 NW 29,0 1010,0 67 -
17:30 7,7 2,0 8,0 NNW 22,5 1010,1 67 -
17:35 7,8 2,1 24,1 NW 15,1 1010,1 67 -
17:40 7,8 2,3 9,7 Noorden 29,0 1010,3 68 -
17:45 7,8 2,4 8,0 NNW 22,5 1010,5 69 -
17:50 7,7 2,6 14,5 NW 25,7 1010,6 70 -
17:55 7,7 2,4 8,0 NNW 32,2 1010,9 69 -
18:00 7,7 2,6 14,5 NNW 29,0 1011,3 70 -
18:05 7,7 3,0 9,7 NNW 32,2 1011,4 72 -
18:10 7,7 3,3 11,3 Noorden 32,2 1011,8 74 -
18:15 7,4 3,6 8,0 NNW 19,3 1011,8 77 0,20
18:20 7,0 3,6 11,3 NNW 32,2 1012,2 79 0,20
18:25 6,7 2,8 9,7 NNW 38,6 1012,3 76 -
18:30 6,7 2,8 9,7 WNW 22,5 1012,4 76 -
18:35 6,8 2,8 11,3 NW 24,1 1012,5 76 -
18:40 6,8 3,1 16,7 WNW 11,1 1012,6 77 0,20
18:45 6,9 2,9 11,3 NW 19,3 1012,8 76 -
18:50 6,9 2,6 12,9 NW 27,4 1012,9 74 -
18:55 7,1 2,6 8,0 NW 20,9 1013,2 73 -
19:00 7,1 2,2 9,7 NNW 19,3 1013,2 71 -
19:05 7,2 2,1 8,0 NNW 19,3 1013,4 70 -
19:10 7,2 2,7 12,9 WNW 32,2 1013,8 73 -
19:15 7,2 3,5 11,3 WNW 32,2 1013,8 77 -
19:20 7,1 3,6 12,9 WNW 32,2 1014,0 78 -
Dagelijkse Samenvatting Maandag 09 december 2019
Tijd Temp. ( °C ) Dew pt. ( °C ) Wind ( km/h ) van Windvlaag ( km/h ) Luchtdruk ( hPa ) Humid.( % ) Rainrate ( cm )
Hoog9,3 7,3 33,3 ZW ( 838/2542 ) 51,5 1014,0 95 2,00
Gemiddeld7,5 5,0 10,9 ZW #46/233 22,9 997,4 85 0,80
Laag5,7 2,0 -   3,2 990,8 67 -
Dagelijkse Tabular details for Maandag 09 december 2019
Tijd Temp. ( °C ) Dew pt. ( °C ) Wind ( km/h ) van Windvlaag ( km/h ) Luchtdruk ( hPa ) Humid.( % ) Rainrate ( cm )
00:00 8,8 4,9 24,1 ZW 46,7 993,5 77 -
00:05 8,8 4,9 20,9 ZW 37,0 993,3 77 -
00:10 8,8 5,0 24,1 ZW 35,4 993,3 77 -
00:15 8,8 5,7 24,1 ZW 46,7 993,3 81 -
00:20 8,8 5,0 19,3 ZW 35,4 993,2 77 -
00:25 8,9 5,2 19,3 ZW 33,8 993,3 78 -
00:30 8,9 5,3 22,5 ZW 35,4 993,2 78 -
00:35 8,9 5,1 22,5 ZW 37,0 993,1 77 -
00:40 8,8 5,2 19,3 ZW 33,8 993,0 78 -
00:45 8,8 5,2 24,1 WZW 16,6 992,9 78 -
00:50 8,8 5,3 22,5 ZW 35,4 992,9 79 -
00:55 8,8 5,2 29,0 ZW 51,5 992,8 78 -
01:00 8,8 5,2 20,9 ZW 37,0 992,7 78 -
01:05 8,8 5,0 20,9 ZW 48,3 992,6 77 -
01:10 8,7 4,7 25,7 ZW 41,8 992,7 76 -
01:15 8,7 4,5 24,1 ZW 40,2 992,7 75 -
01:20 8,7 4,3 24,1 ZW 38,6 992,7 74 -
01:25 8,7 4,5 22,5 ZW 38,6 992,6 75 -
01:30 8,7 4,6 19,3 ZW 32,2 992,6 75 -
01:35 8,8 4,8 19,3 ZW 35,4 992,6 76 -
01:40 8,8 4,9 19,3 ZW 32,2 992,5 77 -
01:45 8,8 4,9 16,1 ZW 41,8 992,7 77 -
01:50 8,7 4,9 24,1 ZW 38,6 992,4 77 -
01:55 8,7 4,8 16,1 ZW 32,2 992,5 77 -
02:00 8,6 4,8 20,9 ZW 38,6 992,5 77 -
02:05 8,6 4,8 24,1 ZW 37,0 992,4 77 -
02:10 8,6 4,8 33,3 ZW 21,1 992,3 77 -
02:15 8,6 4,8 16,1 ZW 38,6 992,3 77 -
02:20 8,6 4,8 14,5 ZW 33,8 992,3 77 -
02:25 8,6 4,8 19,3 ZW 33,8 992,2 77 -
02:30 8,6 4,8 22,5 ZW 37,0 992,3 77 -
02:35 8,6 4,8 19,3 ZW 27,4 992,1 77 -
02:40 8,6 5,0 12,9 ZW 29,0 992,0 78 -
02:45 8,6 4,9 16,1 ZW 29,0 991,9 78 -
02:50 8,6 5,0 14,5 ZW 33,8 991,8 78 -
02:55 8,7 4,8 24,1 ZW 37,0 991,9 77 -
03:00 8,7 5,1 11,3 ZZW 32,2 991,8 78 -
03:05 8,6 5,2 9,7 ZW 16,1 991,8 79 -
03:10 8,4 5,2 8,0 ZW 24,1 991,8 80 -
03:15 8,3 5,0 9,7 ZW 24,1 991,9 80 -
03:20 8,1 5,0 11,3 ZW 25,7 991,7 81 -
03:25 7,9 5,0 4,8 ZZW 19,3 991,7 82 -
03:30 7,7 4,8 8,0 ZZW 20,9 991,7 82 -
03:35 7,6 4,9 8,0 ZZW 19,3 991,6 83 -
03:40 7,5 4,9 9,7 ZZW 14,5 991,4 84 -
03:45 7,4 5,1 4,8 ZZW 17,7 991,2 85 -
03:50 7,3 5,1 3,2 ZW 19,3 991,1 86 -
03:55 7,2 5,1 8,0 ZW 20,9 991,2 86 -
04:00 7,2 5,2 11,3 ZZW 22,5 991,4 87 -
04:05 7,2 5,3 8,0 ZZW 32,2 991,4 88 -
04:10 7,1 5,3 9,7 ZZW 25,7 991,2 88 -
04:15 7,0 5,3 4,8 ZZW 22,5 991,1 89 0,20
04:20 6,9 5,3 9,7 ZZW 20,9 991,3 89 -
04:25 6,8 5,2 11,3 ZZW 24,1 991,4 89 0,20
04:30 6,8 5,3 8,0 ZZW 19,3 991,1 90 0,80
04:35 6,7 5,2 11,1 ZZO 6,4 991,1 90 2,00
04:40 6,6 5,3 4,8 Zuiden 16,1 991,3 91 0,20
04:45 6,6 5,2 8,0 Zuiden 22,5 991,1 91 -
04:50 6,6 5,2 16,7 ZW 11,1 991,1 91 2,00
04:55 6,5 5,2 19,3 ZZW 35,4 991,4 91 0,20
05:00 6,5 5,3 11,3 ZW 20,9 991,4 92 0,20
05:05 6,4 5,2 11,3 ZZW 32,2 991,4 92 0,80
05:10 6,3 5,1 11,3 ZZW 22,5 991,4 92 0,80
05:15 6,3 5,1 4,8 ZZW 16,1 991,3 92 -
05:20 6,3 5,1 8,0 ZZW 20,9 991,2 92 0,80
05:25 6,3 5,1 12,9 ZZW 22,5 991,2 92 -
05:30 6,2 5,2 11,3 ZW 19,3 991,2 93 -
05:35 6,2 4,9 9,7 ZW 19,3 991,2 92 -
05:40 6,1 5,1 9,7 ZZW 19,3 991,2 93 -
05:45 6,1 5,0 9,7 ZZW 19,3 991,2 93 0,40
05:50 5,9 4,9 4,8 ZZW 16,1 991,1 93 0,20
05:55 5,8 4,8 4,8 ZZW 19,3 991,1 93 -
06:00 5,8 4,7 4,8 ZZW 11,3 991,1 93 -
06:05 5,8 4,7 3,2 Zuiden 11,3 991,0 93 -
06:10 5,7 4,7 9,7 Zuiden 14,5 991,0 93 -
06:15 5,7 4,7 3,2 Zuiden 14,5 990,9 93 -
06:20 5,7 4,7 4,8 Zuiden 14,5 990,9 93 -
06:25 5,7 4,7 8,0 ZZW 14,5 990,9 93 -
06:30 5,8 4,7 1,6 ZW 9,7 990,8 93 -
06:35 5,8 4,7 4,8 ZZW 12,9 990,8 93 0,20
06:40 5,7 4,7 3,2 ZZW 14,5 990,8 93 -
06:45 5,7 4,7 4,8 ZZW 19,3 990,8 93 -
06:50 5,7 4,7 1,6 ZZW 9,7 990,8 93 -
06:55 5,7 4,6 3,2 Zuiden 9,7 990,8 93 -
07:00 5,7 4,7 4,8 ZZW 9,7 991,0 93 -
07:05 5,8 4,9 4,8 ZZW 14,5 991,2 94 -
07:10 5,8 4,9 4,8 ZZW 9,7 991,2 94 -
07:15 5,8 4,9 1,6 ZZW 9,7 991,3 94 -
07:20 5,8 4,9 1,6 ZZW 6,4 991,5 94 -
07:25 5,8 4,9 3,2 ZZW 8,0 991,3 94 0,20
07:30 5,8 4,9 1,6 ZZW 4,8 991,5 94 -
07:35 5,9 5,0 1,6 ZZW 6,4 991,5 94 0,20
07:40 5,9 5,0 1,6 ZZW 4,8 991,5 94 0,40
07:45 5,9 5,0   Kalm 3,2 991,5 94 -
07:50 5,9 5,1 1,6 Zuiden 9,7 991,5 94 -
07:55 5,9 5,1 3,2 ZZO 12,9 991,7 94 -
08:00 6,0 5,1 3,2 Zuiden 14,5 991,7 94 -
08:05 6,0 5,1 4,8 ZZW 8,0 991,9 94 -
08:10 6,1 5,2 1,6 WZW 6,4 992,0 94 -
08:15 6,1 5,2 1,6 WNW 6,4 992,2 94 -
08:20 6,1 5,2 1,6 WNW 3,2 992,3 94 -
08:25 6,2 5,3 3,2 WNW 4,8 992,4 94 -
08:30 6,2 5,3   Kalm 6,4 992,5 94 -
08:35 6,3 5,6 4,8 WNW 12,9 992,5 95 -
08:40 6,6 5,8 9,7 WNW 20,9 992,6 95 -
08:45 6,7 5,9 8,0 Westen 14,5 992,7 95 -
08:50 6,7 5,8 4,8 Westen 11,3 992,8 94 -
08:55 6,8 5,9 4,8 WNW 14,5 992,8 94 -
09:00 6,8 5,9 4,8 WNW 19,3 992,7 94 -
09:05 6,8 5,9 4,8 Westen 19,3 992,9 94 -
09:10 6,9 6,0 4,8 Westen 14,5 993,1 94 -
09:15 6,9 6,1 11,3 Westen 16,1 993,1 94 -
09:20 7,1 6,0 11,3 Westen 20,9 993,5 93 -
09:25 7,2 6,2 9,7 WZW 27,4 993,5 93 0,20
09:30 7,3 6,2 11,3 WZW 22,5 993,6 93 0,20
09:35 7,2 6,2 9,7 Westen 16,1 993,6 93 0,20
09:40 7,2 5,9 9,7 Westen 16,1 993,7 92 -
09:45 7,2 6,0 18,5 Westen 9,5 993,7 92 0,40
09:50 7,3 6,1 8,0 WZW 19,3 993,8 92 -
09:55 7,4 6,2 9,7 WZW 19,3 993,9 92 -
10:00 7,5 6,3 12,9 Westen 20,9 994,1 92 -
10:05 7,6 6,2 9,7 Westen 12,9 994,2 91 -
10:10 7,7 6,5 16,1 Westen 33,8 994,6 92 -
10:15 7,8 6,4 9,7 Westen 25,7 994,7 91 -
10:20 7,8 6,2 9,7 Westen 27,4 994,7 90 -
10:25 7,7 6,1 8,0 WNW 19,3 994,7 90 -
10:30 7,6 5,9 8,0 Westen 20,9 994,8 89 -
10:35 7,6 5,9 9,7 Westen 20,9 994,9 89 -
10:40 7,7 6,1 9,7 Westen 20,9 995,0 89 -
10:45 7,9 6,2 20,4 Westen 13,2 995,0 89 -
10:50 7,9 6,2 14,5 Westen 29,0 995,1 89 -
10:55 8,1 6,2 12,9 Westen 25,7 995,2 88 -
11:00 8,3 6,4 11,3 Westen 19,3 995,2 88 -
11:05 8,4 6,4 18,5 WZW 12,6 995,4 87 -
11:10 8,6 6,6 14,5 Westen 25,7 995,5 87 -
11:15 8,7 6,7 9,7 WZW 25,7 995,7 87 -
11:20 8,7 6,5 12,9 Westen 27,4 995,6 86 -
11:25 8,8 6,6 22,2 WNW 11,7 995,8 86 -
11:30 8,6 6,0 11,3 Westen 25,7 995,8 84 -
11:35 8,3 5,7 9,7 WZW 19,3 995,7 84 -
11:40 8,2 5,8 11,1 WZW 5,3 995,9 85 -
11:45 8,2 6,0 14,5 WZW 27,4 996,0 86 -
11:50 8,2 6,0 14,5 Westen 25,7 996,1 86 -
11:55 8,2 6,0 9,7 Westen 24,1 996,0 86 -
12:00 8,1 5,8 12,9 Westen 20,9 996,1 86 -
12:05 8,0 5,8 4,8 Westen 19,3 996,2 86 -
12:10 8,0 5,9 4,8 Westen 14,5 996,2 87 -
12:15 8,1 6,0 8,0 Westen 12,9 996,4 87 -
12:20 8,2 6,3 11,1 Westen 6,6 996,5 88 -
12:25 8,3 6,4 4,8 Westen 14,5 996,6 88 -
12:30 8,4 6,7 11,1 Westen 7,1 996,8 89 -
12:35 8,6 6,8 3,2 Westen 16,1 996,9 89 0,20
12:40 8,7 6,9 9,7 Westen 20,9 997,1 89 0,20
12:45 8,8 6,9 3,2 WNW 16,1 997,3 88 -
12:50 9,1 7,2 3,2 NW 14,5 997,5 88 -
12:55 9,2 7,3 4,8 NW 16,1 997,5 88 -
13:00 9,1 7,1 8,0 NW 19,3 997,9 87 -
13:05 9,1 7,1 4,8 NW 14,5 998,1 87 -
13:10 9,2 7,3 3,2 NW 16,1 998,2 88 -
13:15 9,3 7,2 8,0 NW 19,3 998,4 87 -
13:20 9,3 7,2 3,2 WNW 19,3 998,6 87 -
13:25 9,2 7,1 3,2 WNW 16,1 998,9 87 -
13:30 9,1 7,0 4,8 NW 19,3 999,2 87 -
13:35 8,8 6,7 8,0 Noorden 19,3 999,5 86 -
13:40 8,5 6,1 11,3 WNW 32,2 999,7 85 0,20
13:45 8,3 6,1 8,0 NW 22,5 999,9 86 -
13:50 8,1 6,1 16,7 ZO 11,3 1000,3 87 0,20
13:55 8,1 6,2 8,0 Noorden 29,0 1000,5 88 0,20
14:00 8,0 6,1 11,3 Noorden 25,7 1000,6 88 -
14:05 7,8 5,9 12,9 NNW 35,4 1000,9 88 -
14:10 7,8 5,9 11,3 Noorden 37,0 1001,2 88 -
14:15 7,7 5,7 14,5 NNW 49,9 1001,6 87 -
14:20 7,7 5,6 14,5 WNW 27,4 1001,9 86 -
14:25 7,6 5,6 11,3 Noorden 24,1 1002,3 87 -
14:30 7,4 5,4 11,3 Noorden 32,2 1002,5 87 -
14:35 7,3 5,3 9,7 NNO 22,5 1002,6 87 -
14:40 7,2 6,0 4,8 NNO 19,3 1002,8 92 -
14:45 7,2 5,4 8,0 Noorden 29,0 1003,0 88 -
14:50 7,2 5,3 19,3 Noorden 29,0 1003,4 88 0,20
14:55 7,1 5,1 11,3 Noorden 32,2 1003,7 87 0,20
15:00 6,9 4,7 14,5 Noorden 40,2 1003,7 86 -
15:05 6,8 4,6 16,7 Noorden 9,5 1003,9 86 0,40
15:10 6,8 4,6 3,2 NNO 16,1 1004,1 86 -
15:15 6,9 4,9 8,0 NO 19,3 1004,4 87 -
15:20 6,9 4,6 31,5 Oosten 15,0 1004,7 85 0,40
15:25 7,1 4,3 14,5 NNO 25,7 1004,8 82 -
15:30 7,5 4,6 11,3 Noorden 32,2 1005,1 82 -
15:35 7,7 4,8 11,3 NNO 27,4 1005,3 82 -
15:40 7,8 4,6 12,9 NNO 27,4 1005,4 80 -
15:45 7,8 4,2 9,7 NW 33,8 1005,7 78 -
15:50 7,9 4,1 9,7 NNW 27,4 1005,8 77 -
15:55 8,0 4,0 14,5 NNW 27,4 1006,1 76 -
16:00 8,0 3,8 8,0 Noorden 32,2 1006,3 75 -
16:05 8,0 3,8 9,7 Noorden 22,5 1006,4 75 -
16:10 8,0 3,8 9,7 Noorden 19,3 1006,6 75 -
16:15 8,0 4,0 12,9 NNW 32,2 1006,9 76 -
16:20 7,8 4,0 12,9 NNO 37,0 1007,3 77 0,20
16:25 7,2 3,4 9,7 Noorden 32,2 1007,5 77 0,20
16:30 7,0 3,4 8,0 Noorden 25,7 1007,6 78 -
16:35 7,1 3,5 12,9 Noorden 32,2 1007,8 78 -
16:40 7,3 3,5 8,0 NW 20,9 1008,1 77 -
16:45 7,4 3,4 12,9 NW 25,7 1008,4 76 -
16:50 7,6 3,6 8,0 NNW 27,4 1008,4 76 -
16:55 7,7 3,7 4,8 NNW 19,3 1008,5 76 -
17:00 7,7 3,7 4,8 NW 19,3 1008,7 76 -
17:05 7,6 3,3 12,9 NNW 32,2 1009,0 74 -
17:10 7,7 2,6 9,7 Noorden 32,2 1009,2 70 -
17:15 7,8 2,7 11,3 NNW 19,3 1009,5 70 -
17:20 7,7 2,2 12,9 NW 27,4 1009,9 68 -
17:25 7,8 2,1 8,0 NW 29,0 1010,0 67 -
17:30 7,7 2,0 8,0 NNW 22,5 1010,1 67 -
17:35 7,8 2,1 24,1 NW 15,1 1010,1 67 -
17:40 7,8 2,3 9,7 Noorden 29,0 1010,3 68 -
17:45 7,8 2,4 8,0 NNW 22,5 1010,5 69 -
17:50 7,7 2,6 14,5 NW 25,7 1010,6 70 -
17:55 7,7 2,4 8,0 NNW 32,2 1010,9 69 -
18:00 7,7 2,6 14,5 NNW 29,0 1011,3 70 -
18:05 7,7 3,0 9,7 NNW 32,2 1011,4 72 -
18:10 7,7 3,3 11,3 Noorden 32,2 1011,8 74 -
18:15 7,4 3,6 8,0 NNW 19,3 1011,8 77 0,20
18:20 7,0 3,6 11,3 NNW 32,2 1012,2 79 0,20
18:25 6,7 2,8 9,7 NNW 38,6 1012,3 76 -
18:30 6,7 2,8 9,7 WNW 22,5 1012,4 76 -
18:35 6,8 2,8 11,3 NW 24,1 1012,5 76 -
18:40 6,8 3,1 16,7 WNW 11,1 1012,6 77 0,20
18:45 6,9 2,9 11,3 NW 19,3 1012,8 76 -
18:50 6,9 2,6 12,9 NW 27,4 1012,9 74 -
18:55 7,1 2,6 8,0 NW 20,9 1013,2 73 -
19:00 7,1 2,2 9,7 NNW 19,3 1013,2 71 -
19:05 7,2 2,1 8,0 NNW 19,3 1013,4 70 -
19:10 7,2 2,7 12,9 WNW 32,2 1013,8 73 -
19:15 7,2 3,5 11,3 WNW 32,2 1013,8 77 -
19:20 7,1 3,6 12,9 WNW 32,2 1014,0 78 -

Download your copy of this data-set  here

Our weather-data as stored at Weather Underground. Script ontwikkeld door Jim McMurry. Aangepast voor de template door Leuven-Template.eu

U vindt ons ook hier:

Het Weer Aktueel

European Weather Network

Weather Underground

Benelux Weer Netwerk

Citizen Weather Observer Program (CWOP)

Apparatuur in gebruik:

Weerstation
Davis VP2

Weerprogramma
Weather Display

Weercomputer
My Computer

Webleverancier
WeservIT

Davis VP2

Weather Display

My Computer

WeservIT